This is the latest recevied weather packets stored in our database for station/object KD0ISH. If no packets are shown the sender has not sent any weather packets the latest 10 day(s).
| Time | Temp. | Humidity | Pressure | Rain* | Wind** | Luminosity | Snow |
|---|---|---|---|---|---|---|---|
| 1777657990 | 16.67° C | 38% | 1020.6 hPa | 0 mm | - | 51 W/m² | - |
| 1777657687 | 16.67° C | 40% | 1020.7 hPa | 0 mm | - | 50 W/m² | - |
| 1777657384 | 16.67° C | 37% | 1020.7 hPa | 0 mm | - | 49 W/m² | - |
| 1777657083 | 16.67° C | 39% | 1020.6 hPa | 0 mm | - | 53 W/m² | - |
| 1777656780 | 16.67° C | 46% | 1020.6 hPa | 0 mm | - | 48 W/m² | - |
| 1777656475 | 17.22° C | 38% | 1020.7 hPa | 0 mm | - | 48 W/m² | - |
| 1777656171 | 15.56° C | 44% | 1021 hPa | 0 mm | - | 59 W/m² | - |
| 1777655866 | 16.67° C | 42% | 1020.9 hPa | 0 mm | - | 60 W/m² | - |
| 1777655563 | 16.67° C | 45% | 1020.8 hPa | 0 mm | - | 81 W/m² | - |
| 1777655260 | 16.11° C | 41% | 1020.8 hPa | 0 mm | - | 69 W/m² | - |
| 1777654957 | 15.56° C | 46% | 1020.9 hPa | 0 mm | - | 174 W/m² | - |
| 1777654654 | 15.56° C | 39% | 1020.8 hPa | 0 mm | - | 46 W/m² | - |
| 1777654352 | 16.11° C | 40% | 1020.8 hPa | 0 mm | - | 47 W/m² | - |
| 1777654050 | 15.56° C | 44% | 1020.8 hPa | 0 mm | - | 46 W/m² | - |
| 1777653746 | 15.56° C | 45% | 1021 hPa | 0 mm | - | 46 W/m² | - |
| 1777653443 | 15.56° C | 48% | 1021.1 hPa | 0 mm | - | 45 W/m² | - |
| 1777653140 | 15.56° C | 45% | 1021 hPa | 0 mm | - | 137 W/m² | - |
| 1777652836 | 15.56° C | 45% | 1021.1 hPa | 0 mm | - | 45 W/m² | - |
| 1777652532 | 15° C | 51% | 1021.1 hPa | 0 mm | - | 250 W/m² | - |
| 1777652230 | 15° C | 50% | 1020.9 hPa | 0 mm | - | 312 W/m² | - |
| 1777651927 | 15.56° C | 52% | 1021.1 hPa | 0 mm | - | 769 W/m² | - |
| 1777651623 | 15° C | 47% | 1020.9 hPa | 0 mm | - | 55 W/m² | - |
| 1777651321 | 15° C | 49% | 1021 hPa | 0 mm | - | 44 W/m² | - |
| 1777651017 | 14.44° C | 46% | 1021 hPa | 0 mm | - | 42 W/m² | - |
| 1777650714 | 13.89° C | 50% | 1021.1 hPa | 0 mm | - | 46 W/m² | - |
* Rain latest hour (hover to see other rain measurements)
** Current wind speed in m/s (hover to see current wind gust speed)